RH
100 100 98 94 89 84 81 78 74 71 68 66 67 69 70 69 66 69 78 83 87 94 99 102 102 101 102 102 100 98 95 91 88 87 89 94 99 102 99 93 89 87 85 84 86 87 87 85 81 76 71 68 67 68 68 68 67 67 67 67 67 67 67 67 67 66 64 62 62 63 65 66 66 64 65 68 74 80 87 92 95 96 94 91 88 85 81
98 99 100 100 97 92 88 86 83 79 75 72 72 73 73 72 71 72 73 73 76 81 87 97 104 105 104 103 102 104 105 104 101 100 102 104 105 102 97 92 90 90 91 93 93 92 89 84 79 74 71 71 71 73 73 72 74 74 73 71 69 68 70 71 72 70 68 68 70 73 75 75 74 72 70 72 76 80 85 88 89 89 88 87 85 81 77
87 88 91 93 94 93 92 89 87 84 81 78 76 74 74 76 78 80 79 77 76 74 77 87 98 106 107 104 103 103 102 101 99 98 99 100 101 100 99 99 101 102 103 102 98 93 88 84 81 77 74 75 77 80 82 82 82 79 75 72 72 74 78 79 79 76 74 75 78 80 81 81 79 77 75 75 78 81 83 84 85 85 85 83 80 78 75
88 89 89 87 85 86 88 90 91 91 89 87 85 83 82 82 85 87 86 87 87 82 80 84 90 98 105 104 102 102 100 98 96 95 95 96 98 102 106 107 107 107 107 105 100 96 95 93 91 86 82 83 87 89 89 86 81 77 75 75 78 82 85 85 84 83 81 81 83 84 85 85 83 81 80 80 82 83 83 84 85 84 84 82 81 79 77
100 100 99 96 88 79 79 89 99 103 101 99 97 95 94 93 93 92 92 96 96 90 86 86 88 94 102 105 104 103 101 99 96 95 96 98 101 106 108 106 105 105 106 107 105 105 105 103 99 93 90 90 90 88 85 82 78 77 76 78 83 87 90 90 88 87 86 85 86 88 89 88 85 82 82 81 82 84 84 85 86 87 86 84 81 79 77
104 101 99 96 86 78 84 97 104 107 108 107 105 104 104 104 103 102 102 103 102 98 95 95 94 95 98 101 103 104 103 102 102 101 101 102 107 109 108 105 106 108 108 108 107 107 105 101 97 94 91 87 84 82 81 80 78 78 80 85 90 93 92 90 88 87 88 88 90 91 90 87 85 83 83 84 85 85 85 85 86 85 83 80 79 78 77
102 99 94 87 77 79 94 104 103 104 108 110 110 108 108 107 105 105 105 104 103 105 106 104 102 100 98 98 101 103 105 105 106 108 108 108 109 108 108 110 112 111 108 106 104 101 98 95 93 90 86 81 80 80 79 79 79 82 88 92 93 92 88 86 86 87 90 92 93 93 92 90 89 89 89 89 87 85 83 81 80 79 78 79 79 79 79
101 96 90 85 81 82 89 95 101 106 108 108 108 108 107 107 105 104 104 104 103 105 106 106 104 101 97 96 98 102 107 107 106 108 110 110 108 106 108 112 112 110 106 103 100 95 93 92 89 84 79 76 77 79 79 82 86 90 92 90 88 88 87 86 88 91 95 97 97 96 95 94 94 93 92 89 86 83 82 81 81 82 83 82 83 83 83
102 100 96 93 90 83 78 84 96 105 106 105 106 106 104 104 104 103 102 102 102 103 103 104 102 95 88 88 94 101 107 108 107 107 107 106 107 108 109 109 108 106 102 98 94 91 88 85 80 76 75 76 79 84 86 89 92 91 90 88 88 89 90 91 93 95 98 99 97 96 95 92 89 88 87 86 86 86 86 86 87 88 88 87 87 86 82
102 103 101 97 93 87 78 76 81 90 98 102 102 102 102 101 103 103 102 102 103 103 102 101 98 91 87 93 101 103 102 103 106 107 105 104 105 105 105 103 102 100 96 91 88 83 79 77 75 76 80 84 89 91 92 92 93 92 92 92 91 91 92 93 92 92 93 95 94 92 88 85 84 86 88 91 94 93 89 88 89 89 90 89 85 80 77
100 100 99 97 97 95 88 77 72 77 88 95 95 94 96 99 102 102 101 101 102 102 101 100 97 94 96 104 106 100 96 100 105 107 107 106 105 104 103 101 97 93 89 84 80 77 75 77 81 85 90 94 95 94 94 94 95 96 95 92 90 91 92 90 88 87 88 88 87 85 84 85 89 93 98 100 100 94 88 87 89 88 86 84 80 77 77
103 104 102 101 102 99 90 79 73 75 83 91 94 94 98 104 106 104 102 101 101 101 100 100 100 99 101 104 102 97 97 100 102 104 105 105 105 105 104 100 94 90 86 82 79 79 81 85 91 96 98 98 96 96 98 99 100 99 96 91 88 89 89 88 87 87 87 86 86 87 90 96 100 102 102 100 97 92 88 86 86 84 82 81 80 81 81
104 104 102 104 105 101 91 80 76 80 91 99 100 100 105 110 111 107 103 101 99 98 99 100 100 100 102 101 98 97 99 99 97 97 98 100 103 102 99 95 93 90 88 86 86 89 93 97 100 101 101 100 101 101 101 102 101 99 94 90 88 89 90 91 92 93 94 94 95 97 100 103 102 100 96 95 93 89 86 84 84 84 84 85 84 84 82
99 99 100 101 99 93 87 81 80 86 97 103 102 102 105 108 110 109 103 98 96 94 93 94 95 97 99 95 88 89 94 96 94 93 95 98 101 100 99 97 96 93 91 91 94 100 103 103 102 102 103 104 102 99 98 100 99 96 94 94 96 97 97 97 98 100 101 101 102 104 103 100 96 93 92 92 89 86 84 86 88 88 88 87 85 82 75
97 98 97 94 90 86 85 84 86 92 101 104 102 102 102 102 103 103 96 91 89 86 84 85 87 90 92 86 81 84 91 94 94 95 97 100 101 100 101 100 98 95 94 95 100 103 104 103 104 105 105 103 99 97 98 99 98 98 99 100 99 97 96 97 100 102 102 102 102 101 98 95 93 93 91 89 87 87 90 92 92 91 89 84 77 68 60
91 89 86 83 84 85 86 87 90 97 104 107 104 101 100 95 90 89 88 88 89 88 88 87 87 90 92 90 90 96 100 102 103 103 102 103 103 102 103 102 100 98 98 99 103 105 106 107 107 105 101 98 98 99 101 100 100 101 100 98 96 96 97 99 102 103 102 100 98 96 95 95 95 92 91 90 92 95 96 95 92 87 79 70 62 55 50
75 74 73 74 79 83 86 89 92 92 93 93 93 94 96 94 90 88 91 94 95 97 99 98 97 98 98 95 97 102 105 106 106 104 104 106 107 105 105 104 102 101 102 105 106 106 107 108 105 101 99 100 101 101 100 100 100 100 99 98 98 99 100 101 102 101 98 95 94 95 96 95 93 93 95 97 98 97 94 89 81 72 63 58 53 48 41
74 74 75 78 84 88 92 94 93 87 82 81 85 90 96 101 101 101 101 102 102 103 104 103 104 104 100 98 101 105 106 106 106 106 107 107 106 105 105 106 105 105 106 107 105 104 106 106 104 102 102 102 100 99 98 100 102 103 104 104 104 103 101 100 98 96 93 91 91 93 94 94 96 98 100 99 96 90 81 73 65 59 55 51 44 36 30
81 81 82 85 90 93 93 92 92 90 89 91 95 99 101 104 106 106 105 105 105 106 104 102 102 103 101 101 103 103 103 107 109 109 109 108 106 106 107 106 105 104 105 105 104 103 103 104 104 105 104 102 102 102 104 107 109 110 110 108 106 102 99 96 93 90 88 88 90 93 96 98 99 99 96 90 82 73 66 61 57 54 47 39 32 28 28
79 79 78 78 82 84 85 85 87 90 93 98 103 107 109 111 110 108 106 105 104 104 104 103 104 104 103 103 104 103 105 108 108 107 108 108 107 108 107 104 103 104 104 103 101 101 102 104 107 107 106 106 108 109 110 111 109 108 105 101 97 94 91 89 88 87 88 92 96 99 99 98 95 89 81 73 66 62 60 56 50 42 35 31 30 30 30
60 61 61 60 62 65 66 68 70 72 75 79 84 90 94 98 102 104 105 106 105 103 104 104 104 103 99 97 97 100 104 105 105 106 108 107 107 109 108 104 103 102 102 102 103 102 103 104 105 106 107 110 111 108 106 104 101 97 94 91 89 88 87 87 88 91 95 99 100 98 93 87 80 72 66 63 61 58 53 45 37 33 32 32 33 34 35
50 52 53 55 57 60 61 63 64 66 68 70 72 75 77 80 84 88 92 93 92 91 90 90 88 87 87 88 92 97 101 102 103 107 109 108 108 109 107 104 103 104 106 108 107 103 101 103 106 108 109 110 109 104 98 94 90 88 87 87 88 88 90 92 96 98 99 97 93 86 79 71 65 62 61 59 54 47 40 35 33 33 33 34 35 38 43
51 53 54 55 57 60 62 63 65 67 68 71 73 74 76 76 77 77 78 78 77 77 77 77 78 80 84 88 92 96 98 98 101 107 110 111 111 111 108 106 105 106 107 108 105 103 103 107 108 108 106 104 100 94 88 86 85 86 87 89 91 94 96 98 97 95 91 85 78 71 65 62 60 59 54 48 41 37 35 34 34 34 35 37 40 44 48
52 56 59 60 62 63 63 61 60 60 61 63 66 68 70 72 72 73 73 74 76 76 77 79 83 86 89 90 93 98 100 101 103 106 108 107 106 104 101 98 97 98 101 103 104 104 105 107 105 101 97 92 88 84 84 85 86 88 91 94 97 98 96 93 89 85 79 72 66 62 60 58 54 48 41 38 36 36 35 35 35 36 39 43 47 50 50
46 50 55 61 67 73 76 76 75 74 73 73 74 76 78 80 82 83 84 85 87 88 89 90 90 91 91 91 94 100 100 94 89 89 91 91 90 90 90 89 91 98 104 105 104 103 103 102 100 94 89 86 86 86 87 88 91 94 98 100 99 94 89 85 80 74 68 63 60 59 55 48 41 37 37 37 37 36 35 36 38 41 45 50 53 53 51
41 42 45 48 53 59 65 70 73 75 76 75 76 77 78 80 82 83 83 82 81 81 80 79 77 75 74 72 74 79 78 72 70 75 81 85 89 91 90 86 88 99 108 107 103 102 100 97 93 89 87 88 90 90 92 95 100 103 102 99 94 88 82 76 70 65 62 59 55 49 42 37 36 37 38 37 36 36 37 40 43 47 51 54 55 53 51
58 56 54 53 51 51 51 51 52 54 55 55 56 57 57 58 59 60 60 58 56 55 55 54 53 52 52 53 58 62 64 69 76 80 83 88 95 99 97 89 87 97 106 104 98 95 93 90 89 90 91 92 93 97 102 106 106 103 98 92 85 78 71 67 63 59 55 49 42 38 36 37 38 38 36 36 37 38 41 45 48 51 54 55 55 53 51
75 75 74 73 71 69 66 64 63 63 62 61 61 61 60 60 59 58 57 56 54 52 51 51 51 53 56 63 72 77 79 85 90 87 85 91 98 102 104 100 92 91 94 93 90 90 90 90 91 94 95 98 103 107 108 106 100 94 86 79 73 68 65 61 55 48 42 38 36 36 37 38 38 37 37 38 39 42 46 50 52 54 56 57 55 52 51
85 86 85 84 82 81 80 80 81 82 82 81 81 82 81 80 78 76 75 74 72 70 68 66 65 65 67 72 78 84 89 91 87 80 81 91 98 101 105 107 101 96 93 91 89 91 93 95 98 102 104 106 107 105 99 92 85 79 73 69 66 62 56 49 42 37 37 37 37 36 37 38 39 39 40 42 44 47 50 53 55 58 59 57 54 52 53
90 91 90 89 87 84 83 83 83 82 82 82 83 84 84 84 83 83 83 83 83 82 81 79 77 76 77 78 79 81 85 86 84 83 87 96 103 105 106 107 106 104 101 96 94 96 100 103 106 107 105 101 95 88 81 76 72 69 66 62 57 49 42 37 36 37 38 37 37 38 39 40 41 42 44 46 49 52 54 57 61 62 60 56 55 55 56
88 88 87 87 86 85 84 84 84 84 83 83 83 84 84 85 85 86 87 88 89 89 88 89 88 88 90 91 90 90 90 91 94 98 101 105 108 108 105 104 104 104 103 103 104 106 107 106 102 97 90 82 76 72 69 67 64 60 55 48 42 38 36 36 38 38 39 39 40 41 42 42 44 46 48 51 54 57 60 63 64 62 59 57 57 58 59
83 83 81 79 80 82 83 85 85 85 85 85 86 86 87 88 90 91 91 91 92 92 93 94 95 98 101 103 103 104 105 106 107 108 108 108 108 106 105 105 106 106 107 107 105 101 96 89 83 77 72 68 66 64 60 56 50 45 41 38 37 37 38 38 39 40 41 42 42 42 44 46 48 50 53 56 60 63 65 66 64 61 59 58 59 60 61
74 74 72 71 72 73 74 75 76 76 76 77 79 80 81 82 83 84 84 84 84 85 87 89 91 94 97 100 101 104 106 107 107 108 107 106 105 103 102 102 100 99 96 92 85 80 75 71 68 65 62 59 55 50 45 42 39 39 39 39 39 39 39 40 41 42 42 43 44 46 49 51 53 56 59 62 65 67 67 66 63 60 59 59 60 62 63
63 63 63 62 62 62 63 64 65 65 65 66 68 69 70 72 73 74 75 76 77 79 81 82 83 85 86 87 88 90 90 91 91 91 91 90 89 87 85 82 80 77 74 71 67 65 62 60 57 53 49 45 42 39 39 40 40 41 41 40 39 40 40 41 42 44 45 47 49 51 53 56 58 61 64 66 67 68 66 63 60 60 60 60 62 64 64
53 53 53 53 53 53 54 54 55 55 55 56 58 59 60 61 62 63 65 66 67 69 70 71 72 72 73 73 72 72 72 72 71 71 70 70 70 68 67 65 64 63 61 58 55 52 48 45 43 41 39 39 40 40 41 42 41 41 41 40 40 40 40 42 45 48 49 51 53 55 56 59 62 65 68 69 68 66 62 59 59 61 61 61 64 66 66
55 54 54 54 54 55 55 55 54 54 54 54 54 55 55 55 56 56 56 57 58 59 60 60 60 61 61 61 61 61 61 61 61 61 61 60 60 58 57 55 52 49 45 42 40 39 39 39 39 40 40 41 41 41 41 41 41 41 41 42 42 42 44 47 51 52 53 54 55 57 59 62 65 68 70 69 67 62 59 58 60 61 61 62 65 68 67
60 59 59 58 58 57 57 56 56 56 56 56 56 56 55 56 56 56 56 56 56 56 56 56 56 55 55 55 54 54 54 53 52 51 49 47 45 43 41 39 38 37 36 37 38 40 40 40 40 40 40 40 40 41 41 41 42 43 44 46 47 48 50 52 54 55 55 56 57 60 62 65 68 69 69 67 65 62 60 60 61 62 62 64 66 67 67
62 60 58 55 53 50 49 48 47 46 46 46 46 46 46 46 45 45 45 45 45 44 44 43 42 42 42 41 40 40 39 38 38 37 36 36 36 36 36 36 37 38 38 39 39 38 38 38 38 39 40 40 41 42 43 44 46 49 50 52 54 55 54 55 57 58 59 60 61 64 66 67 68 68 66 65 64 64 63 62 63 63 64 66 67 66 66
62 58 54 49 45 42 40 39 38 38 38 38 38 38 38 38 37 37 37 36 35 35 35 34 34 35 34 34 35 35 35 35 35 36 36 37 37 37 37 36 36 36 36 36 36 36 37 38 39 40 42 44 45 47 49 50 52 55 56 58 59 59 57 57 58 60 63 64 66 67 67 67 66 65 64 64 65 66 65 65 64 65 68 69 69 68 66
62 57 51 45 41 38 37 37 37 36 36 37 37 36 36 36 36 35 35 35 35 35 35 35 36 36 36 36 37 36 36 37 36 36 36 36 35 35 35 34 35 36 37 37 37 38 40 42 43 44 47 49 51 52 54 56 58 60 60 60 61 61 61 60 62 64 66 68 68 67 66 65 64 64 65 66 66 66 66 66 66 67 70 72 72 71 68
63 56 50 44 40 39 38 38 38 38 38 38 38 38 38 38 38 38 38 38 37 38 38 37 37 37 37 37 37 36 36 36 36 35 35 35 35 35 36 37 38 39 39 39 40 43 45 47 48 49 51 53 54 56 58 60 61 61 61 61 63 66 66 65 66 67 68 68 67 66 65 64 64 65 66 66 66 67 67 68 69 71 73 75 75 74 72
66 58 50 44 41 40 40 39 40 40 39 39 39 39 39 40 39 39 39 39 38 38 38 37 37 37 37 37 37 37 37 37 37 37 37 37 37 37 38 39 40 41 41 42 45 48 50 51 52 53 54 56 57 59 61 62 61 61 61 63 66 69 70 69 68 67 66 65 65 66 67 67 67 66 65 66 67 67 67 69 73 76 78 78 77 77 78
69 61 52 46 43 41 41 41 40 40 40 40 40 40 40 40 40 40 40 39 39 39 39 39 39 39 39 39 39 39 38 38 38 38 38 38 37 38 39 40 41 42 45 49 52 54 54 55 55 57 58 59 60 62 63 64 63 62 63 65 67 68 69 69 67 66 65 65 66 68 69 69 67 66 66 66 66 67 68 72 77 81 82 81 81 83 86
73 66 57 49 45 43 41 40 40 40 40 40 41 41 41 41 41 41 41 42 42 42 43 43 43 43 43 42 42 41 40 40 40 39 39 39 39 39 40 41 42 46 52 56 57 56 56 57 57 59 60 61 63 65 65 65 64 64 65 66 67 68 69 69 69 69 69 68 67 67 68 68 68 68 68 69 69 70 73 76 80 83 85 86 87 89 91
77 73 65 55 48 45 43 42 41 41 41 41 42 42 43 44 44 44 45 45 45 46 46 47 47 47 47 47 46 46 45 44 43 42 42 41 41 42 42 42 43 47 53 57 59 59 60 60 60 61 62 63 66 67 67 67 68 68 69 69 69 69 70 71 71 70 69 67 66 66 67 68 70 71 73 74 76 77 78 81 85 88 91 92 91 90 87
81 80 75 66 57 50 46 44 44 44 44 43 44 44 45 45 46 47 47 47 48 48 49 49 49 49 49 50 49 49 48 48 47 46 45 45 45 45 44 44 44 46 49 53 58 61 64 64 64 64 64 66 68 70 70 71 72 73 73 72 71 70 70 70 70 70 70 70 70 70 71 73 75 77 79 81 82 84 87 90 93 94 94 92 89 85 83
84 86 84 78 69 60 53 49 47 47 47 47 47 47 47 47 48 48 48 48 49 49 50 50 51 51 51 52 52 51 51 51 51 50 50 49 49 48 48 47 47 47 47 48 51 55 59 63 65 67 69 71 73 73 74 75 76 76 76 75 74 74 73 73 73 73 74 75 75 76 77 79 81 84 87 90 92 94 95 95 93 91 88 86 85 84 85
83 86 87 85 79 71 63 57 52 50 50 50 50 49 49 49 49 49 48 48 49 50 51 52 52 53 53 53 53 53 53 53 53 54 54 53 53 53 52 52 51 50 50 49 50 51 53 56 58 59 62 66 69 72 75 77 78 79 80 80 80 80 80 80 80 80 80 81 82 83 84 86 87 90 92 93 93 92 89 87 85 84 83 85 87 90 92
80 82 84 86 85 81 76 68 61 56 55 54 53 52 52 51 51 50 50 51 52 53 53 54 55 56 56 56 56 56 56 56 56 56 56 55 55 55 55 55 54 54 53 52 52 53 54 55 56 57 57 58 59 61 64 67 70 73 76 78 79 81 82 83 84 84 84 84 83 83 83 83 83 83 83 82 82 81 81 83 85 86 88 91 94 96 97
82 81 82 84 86 87 84 80 74 68 63 60 58 56 55 54 54 54 55 55 56 57 57 58 59 60 60 61 61 62 62 61 61 61 61 60 60 60 60 60 60 59 58 57 57 57 57 58 58 59 59 59 59 58 58 58 60 61 63 65 66 68 70 71 72 73 74 74 73 73 72 71 71 71 72 73 75 77 80 85 90 93 95 97 98 99 99
91 88 85 84 86 87 87 86 84 80 76 72 69 65 63 61 61 61 62 63 62 63 63 64 65 66 67 68 68 68 68 69 69 70 70 70 71 71 72 72 71 70 70 70 69 68 67 66 66 66 67 68 67 66 65 64 63 62 61 60 60 60 60 61 62 63 63 63 64 64 65 65 66 68 71 74 77 81 87 92 95 96 97 97 98 98 99
99 99 96 93 90 89 88 88 87 86 84 83 81 78 75 73 73 73 73 73 73 73 75 76 76 77 77 76 75 74 74 75 75 76 78 81 83 84 84 84 83 83 83 84 83 83 82 81 80 80 79 79 79 79 79 79 78 77 76 74 72 71 70 70 70 69 69 69 70 72 74 76 79 83 87 90 92 94 97 100 100 98 97 97 99 101 102
Wind_Speed
44 44 44 44 43 43 43 43 43 42 41 40 37 35 35 36 36 38 40 42 43 45 47 48 50 51 51 51 51 51 51 51 51 52 52 52 53 53 54 53 53 53 53 53 53 53 53 54 54 54 54 54 54 53 53 53 53 54 55 55 57 58 59 59 60 61 62 62 63 63 63 63 63 63 64 64 65 66 67 68 68 69 70 70 71 72 73
44 44 43 43 43 42 42 42 43 42 41 39 37 36 36 35 35 37 40 41 43 45 47 48 50 51 51 51 51 51 51 50 50 50 51 51 52 52 53 52 53 53 54 53 53 53 54 54 54 54 54 54 54 54 54 54 54 56 57 58 59 60 60 61 62 62 63 63 64 64 64 64 64 64 64 65 66 67 67 68 69 69 70 70 71 71 71
44 44 44 43 43 42 41 41 42 42 42 41 39 38 36 35 35 36 38 39 41 43 45 48 49 50 52 53 53 53 52 52 51 51 51 51 51 52 52 53 53 54 54 54 54 54 55 55 55 55 55 55 55 55 55 56 57 58 59 59 60 61 62 63 63 64 64 65 65 65 64 64 64 64 65 65 66 67 67 68 69 69 69 69 68 68 68
45 45 45 45 44 43 41 40 41 41 42 41 40 39 38 37 36 37 37 38 40 43 44 46 47 49 51 53 53 54 54 53 53 52 52 51 51 52 52 53 54 54 54 54 54 55 55 55 56 56 56 56 56 57 58 59 59 60 60 61 62 63 63 64 65 65 65 65 65 65 64 63 63 64 64 65 66 66 67 67 67 67 66 66 66 67 68
47 47 47 47 47 44 41 40 41 42 41 41 41 40 40 39 38 38 37 39 42 43 42 44 46 47 49 51 52 53 54 54 54 53 53 53 52 53 53 54 54 54 54 55 55 55 56 57 57 58 57 57 58 59 60 61 61 61 61 62 63 64 64 65 65 65 65 65 64 63 63 62 63 63 64 64 65 65 65 64 64 64 64 66 68 69 69
48 48 49 49 46 42 41 43 44 44 43 42 42 41 41 40 40 39 40 42 42 42 42 43 45 46 47 49 50 51 52 53 54 54 54 54 54 55 55 56 56 56 57 57 57 58 58 59 59 59 59 60 60 61 61 61 61 62 63 64 64 65 65 65 65 65 64 63 62 61 61 62 62 63 63 63 63 62 62 63 64 65 66 68 69 68 68
50 50 50 47 43 42 45 47 46 45 45 44 44 43 42 42 42 42 42 43 43 43 43 44 45 45 47 48 49 50 51 52 53 54 55 55 56 56 57 58 59 59 60 60 60 61 61 61 61 61 61 61 61 61 61 61 62 63 64 65 65 65 65 64 64 62 61 60 59 60 60 61 61 62 62 62 61 62 63 65 66 67 67 68 68 68 68
53 51 50 46 43 44 48 48 47 47 47 47 46 45 44 43 43 43 44 44 45 45 45 46 46 46 47 47 48 49 50 51 53 55 56 57 57 58 59 60 61 62 62 62 62 62 62 62 62 62 62 61 60 61 61 62 63 65 65 66 66 65 64 62 61 59 58 58 58 59 60 60 61 61 61 61 63 64 66 67 67 68 68 68 68 68 69
53 52 51 48 47 47 48 49 49 50 49 49 48 47 46 45 45 45 46 46 47 47 47 48 48 48 47 46 47 48 50 52 54 55 56 57 59 60 61 62 62 63 63 63 63 63 62 62 62 61 61 60 60 61 62 63 65 66 66 66 64 63 61 60 59 58 58 58 58 59 60 60 61 61 62 63 65 66 67 67 68 68 68 68 69 69 70
54 53 52 51 49 48 49 50 51 51 51 51 50 49 47 46 46 47 49 49 49 49 50 49 49 48 47 46 47 49 51 52 53 54 55 57 59 60 61 62 62 63 63 62 62 62 61 61 60 60 60 60 61 62 64 65 66 66 65 64 62 61 59 58 58 57 57 58 58 59 60 60 61 62 63 64 65 66 67 67 67 67 68 69 69 70 72
54 54 53 51 50 49 50 51 51 52 53 53 51 49 48 48 49 51 51 52 52 52 51 51 50 49 47 48 50 51 51 52 53 54 56 57 58 59 60 61 61 61 61 60 60 60 60 59 59 60 60 61 63 64 65 66 66 65 64 62 60 58 57 57 57 57 57 58 59 59 60 61 62 63 64 65 66 66 67 67 67 68 68 69 70 72 73
55 55 54 52 51 51 52 52 51 52 53 53 51 49 50 52 54 54 54 55 54 54 53 52 51 50 50 51 52 52 51 52 53 54 55 57 58 59 60 60 60 60 60 59 59 59 59 60 60 61 62 63 64 65 66 66 65 63 61 59 58 56 56 56 57 58 58 59 60 61 62 63 64 64 65 66 66 67 67 67 68 68 69 70 72 73 74
57 56 55 53 52 52 53 53 52 52 52 51 50 51 54 57 58 58 58 57 56 55 54 53 53 53 52 53 53 53 53 53 53 54 55 56 58 59 60 60 60 60 60 60 59 59 60 61 61 62 63 64 65 65 65 64 62 60 58 57 56 56 56 57 58 59 60 61 62 62 63 64 65 66 66 66 67 67 67 67 68 69 70 72 73 74 76
58 58 56 55 53 53 54 54 54 53 52 51 52 55 58 60 61 61 60 58 57 56 55 54 54 54 54 55 55 54 54 54 55 55 56 57 58 59 59 60 60 60 60 60 60 61 61 62 63 64 64 65 65 64 63 61 59 57 56 56 56 57 58 59 60 61 62 62 63 63 64 65 65 65 66 66 66 66 66 67 68 70 71 73 74 75 76
58 57 56 54 53 55 56 56 55 54 54 54 57 60 61 61 62 61 59 58 57 57 56 56 56 56 56 57 56 55 55 56 57 57 57 57 58 59 60 60 61 61 61 61 61 62 63 63 63 64 64 64 63 62 60 58 56 55 55 56 57 58 59 60 61 61 62 62 63 64 64 64 64 65 65 65 65 66 67 68 70 71 72 73 74 75 76
58 57 56 55 56 57 58 58 57 56 57 58 60 62 62 61 60 59 58 57 57 56 57 57 57 57 58 58 57 56 57 58 58 59 59 59 59 60 60 61 62 62 61 61 62 62 62 62 63 63 63 62 60 58 57 55 55 55 56 57 58 59 60 60 61 62 62 63 63 64 64 64 64 64 64 65 66 67 68 69 70 71 72 73 74 75 76
58 57 57 57 57 58 58 58 59 59 59 60 61 61 61 60 59 58 58 58 57 57 58 59 59 59 60 59 58 58 59 60 60 60 60 60 60 60 60 61 61 61 61 61 61 62 62 62 63 63 61 59 56 55 54 54 55 56 57 59 60 61 61 62 62 63 63 63 63 63 63 63 63 64 65 66 67 68 69 70 70 71 72 73 74 74 74
57 57 57 57 57 57 57 58 59 60 59 59 59 59 59 60 59 59 59 59 60 60 60 61 61 62 61 60 60 61 61 61 61 61 61 61 60 60 60 60 61 61 61 61 62 62 62 62 61 60 57 55 53 53 54 55 56 58 59 60 61 61 62 62 62 62 62 62 62 62 62 63 63 64 66 67 67 68 69 69 70 71 72 72 72 70 69
57 57 57 57 58 58 58 58 59 58 58 57 57 58 59 60 60 61 61 62 62 63 63 63 64 63 62 61 62 62 62 62 61 61 61 60 60 60 60 60 60 61 62 62 62 62 61 60 58 56 54 53 53 54 55 56 58 59 60 61 61 61 61 61 61 61 61 61 61 61 62 63 64 65 65 66 66 67 68 70 71 71 70 69 67 65 63
58 58 59 59 59 59 59 59 59 59 59 58 59 60 61 61 62 63 64 65 65 65 65 65 65 65 63 62 62 62 62 61 60 60 59 60 60 60 60 60 61 62 62 62 62 60 58 56 55 53 53 54 54 55 57 58 59 60 60 60 60 59 59 59 60 60 60 60 61 62 63 63 64 64 64 65 66 68 69 69 69 68 66 65 62 60 57
54 55 55 55 55 56 57 57 58 58 59 59 59 60 61 62 63 64 65 66 66 66 66 66 65 64 63 61 60 60 60 60 59 58 59 59 59 60 61 61 62 62 62 61 60 58 55 54 53 53 53 55 56 57 58 58 58 58 58 58 58 58 58 58 59 59 60 61 62 62 63 63 63 63 64 66 67 68 68 67 65 63 61 58 55 54 54
44 45 45 45 46 48 49 50 51 52 53 54 54 55 56 57 58 60 61 62 63 63 63 62 62 61 59 58 57 57 57 57 57 58 59 59 59 60 61 62 62 61 60 59 57 55 53 52 52 53 54 56 57 58 58 57 57 57 56 56 57 57 58 58 59 60 61 62 62 62 62 62 63 64 65 66 66 65 64 63 60 58 54 51 50 50 51
35 36 37 38 39 41 43 44 45 46 47 48 49 50 51 52 53 55 56 57 57 57 57 57 57 56 56 55 54 54 55 56 56 57 58 59 59 60 61 60 60 58 56 55 54 52 52 52 53 55 56 57 58 58 57 56 56 56 56 56 57 58 59 60 61 61 62 62 62 62 62 63 64 64 64 64 62 61 59 57 55 51 49 48 48 48 49
33 33 34 34 35 37 39 40 42 43 44 44 45 46 47 48 49 50 51 52 52 53 53 53 53 53 53 52 52 53 55 55 56 56 57 58 58 59 59 58 56 54 53 52 52 52 53 54 55 56 57 57 57 56 56 55 55 55 56 57 58 59 60 61 61 61 62 62 62 62 63 63 63 62 61 60 58 56 54 51 48 46 46 46 47 47 48
32 33 33 34 34 35 36 37 39 40 41 42 43 44 45 46 46 47 48 49 49 50 50 50 51 51 51 51 51 52 54 54 53 53 54 55 56 56 56 54 52 50 51 52 53 54 55 55 56 57 57 56 55 55 55 55 55 56 57 59 60 61 61 61 61 62 62 63 63 63 63 61 60 58 57 55 53 50 47 45 44 44 44 45 45 46 46
31 32 33 34 35 36 37 38 39 40 41 42 42 43 44 45 45 46 47 47 48 48 48 49 49 49 49 49 49 50 52 52 50 50 51 52 52 53 53 52 50 49 51 54 55 55 56 56 56 56 55 54 54 54 55 55 57 58 59 61 62 62 62 62 62 62 63 63 62 61 60 58 56 55 52 50 47 45 43 42 42 43 43 43 44 44 44
30 31 32 33 34 35 36 37 38 39 40 41 41 42 43 44 44 45 45 46 46 46 46 47 47 46 46 46 46 47 48 48 48 49 49 49 50 51 52 52 51 51 53 55 56 55 55 55 54 54 53 53 54 55 56 57 59 60 61 62 62 62 62 63 63 63 62 61 59 57 55 54 52 50 47 45 43 42 41 41 41 41 41 42 42 42 42
28 29 30 31 33 34 35 36 37 38 39 39 40 41 42 42 43 44 44 44 44 44 44 44 44 44 43 43 44 45 46 46 48 49 48 47 48 50 52 54 54 53 53 54 54 53 53 53 52 52 53 54 55 56 58 59 61 62 62 62 62 63 63 63 62 60 59 57 55 53 51 49 47 46 43 42 41 40 40 40 40 40 40 40 41 41 40
28 29 30 31 32 33 34 35 36 37 38 39 40 41 41 42 43 43 43 43 43 43 43 43 43 43 43 43 44 45 46 47 49 48 47 47 48 50 51 53 54 53 52 52 52 51 51 52 52 53 54 56 57 59 60 61 61 62 62 62 63 63 62 60 58 56 55 53 51 49 47 45 43 42 41 41 40 40 39 39 39 39 39 39 39 39 39
28 30 32 33 34 34 35 35 36 37 38 39 39 40 41 41 42 42 42 42 42 42 43 43 43 43 43 44 44 45 46 47 47 46 46 46 48 50 51 52 52 52 52 52 52 51 52 53 54 56 57 58 59 59 60 61 61 62 62 62 61 60 58 56 54 52 51 49 47 45 43 42 41 40 40 39 39 39 39 38 38 38 38 38 38 37 37
27 29 31 32 33 33 33 34 35 36 37 38 39 39 40 40 40 41 41 41 42 42 42 43 43 43 44 44 45 45 46 46 46 46 46 47 50 51 51 51 52 52 52 53 53 53 54 55 56 57 58 59 59 59 60 60 60 60 60 59 58 56 54 51 50 49 47 45 44 42 41 40 40 39 39 38 38 38 37 37 36 37 37 36 36 36 36
26 28 29 29 30 30 31 32 34 35 36 36 37 38 38 39 40 40 41 42 42 42 42 43 43 43 44 45 45 45 46 46 46 46 47 49 51 51 51 51 52 52 53 54 55 56 56 57 57 58 58 58 59 59 59 58 58 57 56 55 53 52 50 48 46 45 44 43 42 41 40 39 39 38 38 37 36 36 35 35 35 35 35 35 35 35 35
28 29 29 29 30 30 31 32 33 34 35 35 36 36 37 38 39 39 40 40 40 41 41 41 41 42 43 43 44 44 45 46 46 47 48 50 51 51 51 52 52 53 54 55 56 56 57 57 57 57 57 57 57 56 55 54 54 53 52 51 50 48 46 45 44 43 42 41 40 40 39 38 38 37 36 35 34 34 33 33 34 33 33 33 33 34 34
31 31 32 32 32 32 33 33 34 35 35 35 35 36 36 37 37 38 38 38 39 39 39 40 41 41 42 43 44 44 45 46 47 48 48 49 50 51 52 52 53 54 55 55 55 55 55 55 55 55 54 53 53 52 51 51 50 50 49 48 47 46 44 43 42 41 41 40 39 38 38 37 36 35 34 33 32 32 32 32 32 31 31 31 32 33 33
31 32 33 33 33 33 34 35 36 36 36 36 37 37 37 38 38 38 39 39 40 40 41 41 42 42 43 44 45 45 46 46 47 48 48 49 50 51 52 52 52 53 53 52 52 51 51 51 50 50 50 49 49 48 48 48 48 47 47 46 45 44 42 40 40 39 39 38 37 36 35 34 33 32 31 31 31 31 31 31 30 29 29 30 31 31 32
29 29 30 31 31 32 32 33 34 35 35 36 37 37 38 38 39 39 40 40 41 41 42 42 43 44 44 45 45 45 46 46 47 47 48 48 48 49 49 49 48 48 48 47 46 46 46 46 47 47 47 47 46 46 46 46 45 45 44 43 43 41 40 38 37 37 36 35 34 33 31 30 30 29 29 30 30 30 30 29 29 28 28 29 29 30 31
27 27 28 28 29 29 30 31 32 33 33 34 35 35 36 36 36 37 38 38 39 39 40 40 41 42 42 42 43 43 43 43 43 44 44 43 43 43 43 43 43 43 42 42 43 43 44 44 44 44 44 44 44 44 44 43 42 42 41 41 40 39 37 35 34 34 33 32 30 29 28 28 27 28 28 29 30 30 30 29 28 28 28 29 29 29 30
26 26 26 26 27 27 28 29 30 30 31 31 32 32 32 32 33 33 34 34 35 35 35 36 36 36 37 37 37 37 37 37 38 38 38 38 38 38 38 38 39 39 39 40 41 41 41 41 41 41 41 41 41 41 41 40 39 39 38 38 37 36 34 32 31 30 29 29 28 27 27 26 26 27 27 28 29 30 29 28 27 28 29 29 29 29 29
24 24 24 24 25 25 25 26 26 27 27 27 28 28 28 29 29 29 30 30 30 30 30 31 31 31 31 32 32 32 32 33 33 33 33 33 34 34 35 35 35 36 37 38 38 38 38 38 38 38 38 38 38 38 38 37 36 36 35 34 33 33 32 30 28 27 27 27 27 26 26 26 26 26 27 28 28 28 28 28 28 28 29 30 30 30 30
23 23 22 22 22 22 23 23 23 23 24 24 24 24 25 25 25 26 26 26 26 26 26 26 27 27 27 28 28 28 29 29 30 30 30 31 31 32 32 32 33 34 35 36 36 35 35 36 36 35 35 35 35 35 34 34 33 32 31 30 30 30 29 27 26 25 25 26 26 26 26 26 26 26 27 27 27 27 27 28 28 28 29 30 30 31 31
22 22 21 21 21 21 21 21 21 22 22 22 22 22 22 23 23 23 23 23 23 23 23 24 24 24 25 25 26 26 27 27 28 28 28 29 29 30 30 31 31 33 34 34 33 33 33 33 32 32 31 31 32 31 31 30 30 29 28 27 27 27 27 26 25 24 24 25 25 26 26 26 26 26 26 26 26 26 27 28 29 29 30 30 31 32 33
22 22 22 21 21 21 21 21 21 21 21 21 21 21 20 21 21 21 21 21 21 21 21 22 22 22 23 23 24 24 25 26 26 26 27 28 28 28 29 29 30 31 31 30 30 29 29 29 29 29 29 28 28 28 28 28 27 27 26 25 24 24 24 24 24 24 24 24 25 25 26 26 26 26 25 25 26 26 27 27 28 30 31 31 32 33 34
22 22 22 22 22 22 22 21 21 21 20 20 19 19 19 19 20 20 20 20 19 20 20 20 20 21 21 22 23 24 24 25 25 25 26 26 26 26 27 27 28 27 27 27 26 26 26 26 26 26 26 26 25 25 25 25 25 24 23 23 22 22 23 23 24 24 24 25 25 25 26 26 26 26 26 26 26 27 27 27 28 30 31 32 33 33 34
22 22 22 22 22 23 23 22 21 21 20 19 19 19 19 19 19 19 19 19 19 19 19 19 19 20 21 21 22 23 23 23 24 24 24 24 24 24 25 25 24 24 24 24 24 25 24 24 23 23 23 23 23 23 23 23 23 22 22 22 22 22 23 23 24 25 25 25 25 25 25 25 25 26 26 27 27 28 28 28 29 30 31 33 33 34 35
22 22 22 22 22 23 22 22 21 20 20 20 20 20 20 20 20 19 19 19 19 18 18 19 19 20 20 21 21 21 22 22 22 22 22 22 22 22 23 23 22 22 22 23 23 23 23 22 22 21 21 21 21 22 22 22 22 22 22 22 23 23 23 24 25 25 25 25 25 25 24 25 25 26 27 28 29 29 29 29 30 31 32 33 34 35 36
23 23 23 23 23 23 22 21 21 21 21 21 21 21 21 21 21 20 20 19 19 19 19 19 20 20 20 20 20 20 21 21 21 21 21 21 21 21 22 21 21 21 22 22 22 22 22 21 21 21 20 20 20 21 21 21 21 22 22 23 23 24 24 24 24 24 25 25 25 25 25 25 26 27 28 29 29 30 31 31 32 33 34 35 36 36 36
25 24 24 24 24 24 23 22 21 21 22 22 23 23 23 22 22 22 22 21 21 20 20 21 21 21 21 21 21 21 21 20 20 20 20 20 20 21 21 21 21 21 21 21 21 21 22 22 22 21 20 20 21 21 21 21 22 22 23 23 24 24 25 25 25 25 25 25 25 26 26 26 27 27 28 30 31 31 32 33 34 34 35 36 36 37 37
27 27 26 26 26 25 24 23 22 22 23 24 25 25 25 24 25 24 23 23 22 22 22 22 22 22 22 22 22 22 21 21 20 20 20 20 20 20 21 21 21 21 21 21 21 21 22 22 23 23 22 22 22 22 22 23 23 23 24 24 25 25 26 26 26 27 27 27 27 27 27 28 28 29 29 31 32 32 33 34 35 35 36 36 37 38 39
29 29 28 28 27 26 25 25 24 24 25 27 28 27 27 27 27 26 24 24 24 24 24 24 24 24 24 24 24 23 22 22 21 21 21 21 20 20 21 21 21 22 22 22 22 22 22 22 23 24 24 24 24 24 24 25 25 25 26 26 27 27 27 28 28 28 29 29 29 29 29 30 30 30 31 31 32 33 34 35 36 36 37 38 38 39 40
30 30 30 29 29 28 28 27 26 26 27 29 29 29 29 29 28 27 26 25 26 26 25 25 25 25 25 25 25 24 23 23 22 22 22 22 21 21 21 22 22 22 23 23 23 23 23 23 24 24 25 26 26 27 27 27 27 27 28 28 29 29 29 29 30 30 31 31 32 32 32 32 32 32 33 33 34 34 35 35 36 37 38 39 40 41 42
31 31 31 31 31 30 30 29 28 28 29 30 30 31 31 29 28 27 27 27 27 27 27 27 27 27 27 26 26 25 24 24 23 23 23 23 23 22 22 23 23 23 24 24 24 24 24 24 25 25 26 27 27 28 29 29 29 29 30 30 31 31 31 31 31 32 32 33 33 34 34 34 34 34 35 36 36 36 36 37 38 39 40 41 42 43 45
31 32 32 33 33 33 32 31 31 30 30 30 31 31 31 30 29 29 28 28 28 28 28 28 28 28 28 27 27 26 26 25 25 24 24 24 24 24 24 25 25 25 25 25 26 26 26 26 27 27 27 28 29 29 30 30 30 31 31 32 32 32 32 33 33 33 34 34 35 35 35 36 36 37 37 38 38 39 39 40 42 43 44 44 45 46 47
Wind_Direction
230 232 233 235 235 235 235 237 238 239 239 239 239 238 238 238 237 237 238 237 236 236 236 236 238 239 241 242 244 245 247 249 250 251 252 253 254 255 256 257 257 258 259 260 261 263 264 266 268 270 272 274 275 277 278 280 282 283 284 285 285 285 286 287 288 288 288 289 289 289 289 289 289 289 289 290 290 290 290 290 290 290 290 291 291 291 291
230 232 233 235 236 236 237 238 240 241 241 241 240 239 238 238 239 239 240 239 239 238 237 237 238 239 240 242 243 244 246 247 248 249 250 251 252 253 255 256 256 257 258 259 261 262 264 266 269 271 273 275 277 278 280 282 283 284 284 285 286 288 289 289 289 289 289 290 290 290 290 290 290 290 290 290 290 290 290 290 290 290 290 291 291 291 291
233 234 236 236 237 237 237 238 240 242 242 242 241 240 240 240 240 242 243 243 243 242 241 240 240 240 241 242 243 244 245 246 247 248 248 249 251 253 254 255 256 257 259 260 262 264 266 268 270 272 274 276 278 280 281 282 282 282 284 286 288 289 289 290 289 289 289 289 290 290 290 289 289 289 289 289 289 289 289 290 290 290 290 290 291 292 292
236 237 239 239 239 238 238 239 241 243 243 243 243 242 241 241 241 242 243 245 245 244 243 243 243 242 243 243 244 245 246 247 248 248 249 249 250 252 254 255 256 258 260 262 264 266 268 270 272 273 275 277 279 280 280 280 281 282 284 286 288 289 289 289 289 288 288 289 289 289 289 289 289 289 289 289 289 289 290 290 290 290 291 291 292 293 292
236 238 239 241 241 241 240 241 242 243 243 243 243 243 242 242 243 244 244 245 246 245 245 245 245 245 245 246 246 247 248 249 249 249 250 250 250 252 253 254 255 257 260 262 264 266 268 269 271 273 275 277 278 278 279 280 282 283 285 287 288 289 289 288 288 288 288 288 288 288 288 288 288 288 289 289 290 290 291 291 291 291 291 292 293 293 292
235 236 238 240 241 242 243 242 241 241 242 242 242 242 242 242 243 244 245 246 247 248 248 247 247 246 246 247 248 249 249 250 250 251 250 250 251 251 252 254 255 257 259 261 263 265 267 269 271 273 275 276 277 278 280 281 283 285 286 288 288 288 288 288 288 287 287 287 287 287 287 287 288 289 289 290 290 291 291 291 291 292 292 293 293 293 292
235 236 237 239 241 242 242 242 242 241 241 241 241 241 242 242 242 243 244 246 248 249 250 250 250 249 248 248 249 250 250 250 250 251 251 251 252 252 253 254 256 257 259 261 264 266 268 270 272 274 275 276 278 279 280 282 284 286 287 288 288 288 287 287 287 287 286 286 286 287 288 288 289 290 290 290 290 291 291 292 292 293 293 294 294 293 293
237 238 239 240 240 240 241 242 242 242 242 241 241 240 241 241 242 243 244 245 247 248 249 250 250 250 250 249 249 250 251 252 251 251 252 252 253 254 255 256 257 259 261 263 265 268 270 271 273 274 276 277 279 280 281 284 286 287 288 288 288 288 287 287 286 286 286 287 287 288 288 289 289 290 289 290 291 292 294 294 295 295 295 295 295 295 294
239 240 240 239 239 239 241 241 241 241 241 241 241 240 240 241 243 244 245 246 246 247 248 249 250 251 251 252 252 252 252 252 253 253 254 254 255 256 257 258 260 261 263 265 267 269 270 272 274 275 277 278 279 281 283 285 287 288 288 288 288 287 287 286 286 286 287 287 288 288 289 289 290 290 290 292 293 295 296 296 295 295 295 295 295 295 295
239 240 240 240 240 242 243 243 243 241 240 240 240 241 241 242 243 244 245 245 246 247 248 249 250 252 253 254 254 253 252 253 254 255 256 257 258 259 260 261 262 263 265 266 268 270 271 273 275 277 278 279 281 283 285 286 287 288 288 288 287 287 287 287 287 287 288 288 288 289 289 290 291 292 293 295 296 296 296 295 295 294 294 295 295 295 295
241 242 242 242 242 243 244 245 245 244 243 242 241 241 242 243 243 243 244 245 245 246 247 248 250 252 253 253 253 254 254 255 255 256 257 258 260 261 262 263 264 265 266 268 270 271 273 275 277 278 279 281 282 284 286 287 287 288 287 287 287 287 287 287 287 288 288 289 289 290 291 292 293 294 295 295 295 295 295 295 294 295 295 295 296 296 297
242 243 243 243 243 244 245 246 247 246 245 245 244 244 244 244 243 243 243 244 244 245 246 248 249 251 251 252 254 255 256 257 257 258 258 259 260 262 263 264 266 267 269 270 272 274 275 277 278 279 280 282 284 285 286 287 287 287 287 287 287 286 287 287 288 289 289 290 291 292 293 293 294 294 294 294 294 294 294 294 295 295 296 296 297 297 298
242 242 242 242 243 245 247 247 247 246 246 245 245 244 243 243 243 242 242 243 244 245 246 247 249 250 251 252 254 255 257 258 259 260 260 261 262 263 264 265 267 268 270 272 274 275 277 277 278 280 282 283 285 286 286 286 286 286 286 286 286 286 287 288 288 289 290 291 291 292 293 293 293 293 293 293 293 294 294 295 295 296 297 297 298 298 298
242 243 243 243 244 246 247 247 246 245 243 243 243 243 242 243 244 244 244 244 245 246 247 248 249 251 252 253 255 256 258 259 260 261 262 262 263 264 265 267 268 269 271 273 274 276 277 278 279 281 283 284 285 285 285 285 285 285 284 284 285 286 287 287 288 289 289 290 291 291 291 292 292 293 293 293 293 294 295 296 297 297 298 298 298 298 298
243 244 245 246 246 247 247 246 245 243 241 240 240 241 242 243 244 246 247 248 249 250 250 251 251 252 253 255 257 258 259 260 261 262 263 264 264 265 266 267 269 270 271 273 274 275 277 279 280 282 283 284 284 284 284 284 283 283 283 283 284 285 286 287 288 288 288 289 290 291 291 292 292 293 293 294 295 296 296 297 298 298 298 298 298 298 299
244 244 245 245 245 245 245 244 243 242 240 239 240 242 243 244 246 248 250 252 253 254 254 254 253 254 254 256 257 258 259 260 261 262 263 264 265 265 266 268 269 270 272 273 275 276 278 279 281 282 283 283 283 283 282 282 282 282 282 283 284 285 286 287 287 287 288 289 290 290 291 292 293 294 294 295 296 297 297 297 297 297 298 298 299 300 300
244 244 244 244 244 244 244 243 243 242 241 241 241 243 246 248 249 250 251 252 253 254 254 254 254 254 255 256 257 257 258 259 260 262 263 264 264 265 266 268 269 271 273 274 275 277 278 279 281 282 282 282 281 280 280 280 280 281 282 283 284 285 285 286 286 287 288 289 290 291 292 293 294 294 295 296 297 297 297 297 297 298 299 300 300 301 302
243 243 243 243 243 243 243 243 243 244 244 244 245 246 248 249 250 251 252 252 253 253 254 254 255 255 256 257 258 258 258 259 260 261 262 263 264 265 267 268 270 272 273 274 275 277 278 280 281 281 280 279 278 278 279 279 280 281 282 283 284 284 285 285 286 287 288 289 290 291 292 293 294 295 296 296 296 296 297 298 299 300 300 301 301 302 303
242 242 242 242 242 242 242 243 244 245 246 247 248 249 249 250 251 252 252 253 253 254 254 255 255 256 257 258 258 258 259 259 259 260 261 262 264 265 267 269 270 271 272 274 275 277 278 279 279 277 276 276 276 277 278 279 280 281 281 282 283 283 284 285 286 287 289 290 291 292 293 294 295 295 295 295 296 297 299 300 300 301 301 302 302 303 304
243 243 243 243 243 243 244 245 245 246 246 247 248 249 250 251 252 252 253 254 254 255 255 256 256 257 257 258 258 258 258 258 258 259 261 262 264 265 267 269 270 271 273 274 275 276 277 277 275 274 273 274 275 276 277 278 279 280 281 282 283 284 285 286 287 288 290 291 292 293 293 294 294 295 296 297 298 299 300 301 301 302 303 303 304 305 305
243 244 245 246 246 246 246 246 246 246 246 246 246 247 248 249 250 252 252 253 254 255 255 256 256 257 257 257 257 257 257 257 258 259 260 262 263 265 267 268 269 271 273 274 275 275 275 274 273 273 274 275 276 277 278 279 279 280 281 283 284 285 286 288 289 290 291 292 293 293 293 294 295 296 298 299 299 300 301 301 302 302 303 304 305 306 307
241 243 244 244 244 244 244 243 243 243 243 243 243 244 245 246 247 248 249 250 251 252 253 254 255 255 255 255 255 255 255 256 257 259 261 262 264 265 266 268 269 270 271 272 273 274 273 273 273 274 275 276 277 278 279 280 281 282 283 285 286 287 288 289 290 291 292 292 292 293 294 296 297 298 299 299 300 301 301 302 302 303 304 305 306 307 307
236 237 239 239 239 239 239 238 238 237 238 238 239 241 242 243 244 245 247 248 249 250 251 251 252 253 253 253 253 254 255 256 257 259 261 262 263 264 265 266 267 268 269 270 271 272 272 272 273 274 275 276 277 278 279 280 282 284 285 286 287 288 289 290 290 291 291 292 293 295 296 297 298 299 299 300 301 301 302 302 302 303 305 306 307 307 307
229 230 232 233 233 235 236 236 237 237 237 237 238 239 241 242 244 245 246 247 248 249 250 250 251 252 252 253 254 255 256 256 257 259 260 261 262 262 263 264 265 266 267 268 269 269 270 271 273 274 275 276 277 278 280 282 283 285 286 287 288 288 289 290 290 291 292 294 295 296 297 298 298 299 300 301 301 301 302 302 303 304 306 306 307 307 308
227 228 228 229 230 231 233 234 235 236 237 238 238 239 240 242 243 244 246 246 247 248 249 250 251 252 252 253 254 255 256 257 257 258 259 259 260 260 261 262 263 264 266 267 267 269 270 271 273 274 275 277 278 280 282 283 285 286 287 287 288 288 289 290 291 292 294 295 296 297 298 299 299 300 301 301 301 301 301 302 304 305 306 306 306 308 309
228 229 229 230 230 231 232 233 234 235 236 237 238 239 240 241 243 244 245 246 247 248 249 250 250 251 252 252 252 253 254 255 256 255 255 257 258 260 261 262 262 263 265 266 267 269 270 272 273 275 276 278 280 281 283 284 285 286 287 287 288 289 290 291 292 293 294 295 297 298 299 300 300 300 300 300 300 301 302 303 304 305 305 306 307 308 310
231 231 232 233 234 235 235 236 237 238 239 239 240 240 241 242 243 244 245 246 247 247 248 249 250 250 251 251 251 251 252 253 254 254 255 257 259 261 263 264 263 263 264 266 268 269 271 272 274 276 278 279 281 283 284 284 285 285 286 287 288 289 290 291 292 294 295 296 298 298 299 300 300 299 299 299 300 301 302 303 304 304 305 306 307 308 309
234 236 236 237 238 238 239 240 240 241 241 242 242 242 243 243 244 245 246 247 248 248 248 249 249 249 249 249 250 251 252 253 253 254 256 258 260 262 264 265 266 265 266 267 269 271 272 274 276 278 279 281 281 282 282 283 283 284 286 287 288 289 291 292 293 295 296 297 298 298 299 299 298 298 298 299 300 302 303 303 304 304 305 306 307 308 310
238 239 240 240 241 241 242 242 242 242 243 243 244 244 245 245 246 246 247 248 249 249 250 250 250 250 250 249 249 250 252 253 255 256 257 259 261 262 264 266 269 270 270 271 272 273 275 277 278 279 279 280 280 280 281 282 283 285 286 287 289 290 291 293 294 295 296 296 297 297 298 297 297 297 298 300 301 302 303 304 304 305 305 307 307 309 310
236 237 238 239 240 241 242 243 244 244 245 245 246 246 247 248 249 249 250 250 251 251 252 252 253 253 253 253 253 253 254 256 258 260 261 262 263 264 265 266 269 270 272 273 275 276 276 277 277 277 278 278 279 280 281 282 284 285 287 288 289 290 291 293 294 295 295 295 296 296 296 296 296 297 299 301 302 302 303 303 303 304 305 307 307 308 309
235 237 237 238 239 241 242 243 244 245 245 246 247 247 248 249 250 250 251 251 251 252 252 253 254 254 255 256 257 258 259 260 261 262 263 263 263 264 265 267 268 270 272 274 275 275 275 275 276 276 277 278 279 281 282 283 285 286 287 288 289 290 291 293 293 294 294 294 294 295 295 296 297 298 299 300 301 301 301 301 302 303 305 306 307 307 308
239 240 240 240 240 240 241 241 242 243 243 244 244 245 246 246 247 248 248 249 250 250 251 252 253 254 255 256 258 259 260 261 262 262 262 262 263 265 267 268 269 270 271 272 272 273 273 274 275 276 277 279 280 282 283 284 285 286 286 287 288 289 290 291 292 292 292 293 294 294 295 296 297 298 298 299 299 299 299 299 301 303 304 305 305 306 308
244 245 245 245 243 242 242 243 243 244 244 244 244 244 245 245 246 247 248 249 250 251 252 253 253 254 255 256 257 257 258 259 259 259 260 261 263 265 266 267 268 268 269 269 270 271 273 274 276 277 279 280 281 282 283 283 284 285 286 286 287 288 289 290 290 291 292 292 293 294 295 295 296 296 297 297 296 296 297 298 300 302 303 303 304 306 308
246 247 248 248 247 247 247 247 247 248 248 247 247 247 247 248 248 249 250 250 251 252 252 253 253 254 254 254 255 255 256 256 257 258 259 260 261 263 264 264 265 266 267 269 271 272 274 276 277 278 279 280 280 281 282 283 283 284 284 285 286 287 288 289 290 291 291 292 293 293 293 294 294 295 294 294 293 294 295 297 299 301 302 303 304 306 308
249 248 248 249 249 249 248 248 248 249 249 249 249 249 249 249 249 250 250 251 251 252 252 253 253 254 254 255 255 256 256 257 258 259 259 260 261 262 263 264 266 267 269 271 272 274 275 276 277 277 278 279 279 280 281 282 282 283 284 285 286 287 288 289 290 291 291 291 291 292 292 292 293 292 292 291 291 292 294 297 299 300 301 302 304 306 308
252 251 251 251 250 250 250 250 250 250 249 249 249 249 249 249 250 250 250 251 251 252 252 253 254 254 255 255 256 257 258 258 259 260 261 261 262 264 265 267 268 269 270 272 273 274 274 275 275 276 277 278 279 279 280 280 281 282 283 285 286 287 289 290 290 290 290 290 290 290 291 291 290 290 289 289 291 293 295 298 299 300 300 301 304 306 309
255 254 254 253 253 253 253 252 252 252 252 252 251 251 251 251 251 251 252 252 252 253 253 254 254 255 256 257 258 258 259 260 261 261 262 263 264 265 267 268 269 270 271 272 272 273 273 274 275 276 277 277 278 278 279 280 281 283 284 285 287 288 289 289 289 288 289 289 289 290 290 289 288 288 288 289 292 294 297 299 300 300 301 302 304 306 310
258 258 257 257 256 255 254 253 253 253 253 253 253 253 253 253 253 253 254 254 254 255 255 256 256 257 258 258 259 259 260 260 261 262 263 264 265 266 267 268 269 270 271 271 271 272 273 274 275 275 276 277 277 278 280 281 282 283 284 286 286 287 287 287 287 287 288 288 289 289 288 288 287 288 288 290 293 296 298 299 300 301 302 303 305 308 311
261 261 260 259 258 257 255 254 253 252 251 251 251 252 252 253 253 253 254 255 255 255 256 256 257 257 257 258 259 259 260 261 262 263 264 264 265 266 267 268 269 269 270 270 271 273 274 275 275 276 277 277 278 279 280 281 282 283 284 284 284 285 285 285 286 286 287 288 288 288 287 287 287 288 289 291 294 296 298 299 300 302 303 305 307 310 312
263 263 263 262 260 258 257 255 254 252 251 251 251 251 251 252 253 253 254 254 255 255 255 256 256 256 257 257 258 259 260 261 262 263 263 264 266 267 268 269 270 271 271 272 274 275 275 275 275 276 277 277 278 278 279 280 281 281 281 281 282 283 284 285 286 286 287 287 287 286 287 287 287 289 291 293 295 296 297 299 301 303 305 306 308 311 313
265 264 264 262 261 259 258 256 255 253 252 252 251 252 252 253 254 254 255 255 256 256 256 256 256 257 258 259 260 261 262 263 265 266 268 269 270 271 272 272 272 271 272 273 274 275 275 275 276 276 277 277 277 278 278 278 278 278 279 280 281 282 284 286 286 286 286 285 285 286 286 287 288 290 292 293 294 295 296 299 302 304 306 307 309 311 313
264 264 263 262 260 258 256 255 253 252 251 251 251 252 252 253 254 254 255 256 256 257 257 258 260 261 262 264 265 266 267 268 269 270 271 271 271 271 271 270 270 271 272 274 275 276 276 277 278 278 278 277 277 277 277 276 276 278 279 280 281 282 284 285 286 285 285 285 285 285 286 288 289 291 292 292 293 294 297 300 303 304 306 307 309 311 312
261 261 260 259 257 255 253 251 250 249 249 249 250 250 251 252 253 254 255 255 257 258 260 262 264 266 267 268 268 269 269 270 270 270 270 270 270 270 270 270 272 274 276 277 277 277 278 278 279 279 278 278 277 277 277 277 279 280 281 281 282 283 284 284 285 285 284 284 285 286 287 288 290 291 292 293 294 296 298 300 302 303 305 306 308 310 312
258 258 257 255 254 253 252 250 249 248 248 248 248 250 251 252 253 253 255 256 258 260 262 265 266 268 269 269 269 269 270 270 270 270 270 270 271 271 272 273 275 277 278 277 277 278 278 279 279 279 278 279 279 279 280 281 282 284 284 284 284 283 283 284 284 284 285 285 285 286 287 288 290 291 293 294 296 298 300 301 302 303 304 306 307 309 311
256 256 255 254 252 252 252 252 252 251 251 251 251 251 252 253 254 255 256 258 260 262 264 266 267 268 268 269 269 270 270 271 271 271 271 271 272 272 273 275 277 277 277 277 279 280 281 281 281 281 281 281 282 282 283 285 286 287 286 286 285 284 284 284 285 285 286 286 287 287 288 289 290 292 293 295 297 299 301 302 303 304 304 306 307 309 311
254 255 255 254 253 252 252 252 252 253 254 255 254 254 253 254 255 256 258 260 262 264 266 268 269 269 270 270 270 271 272 272 273 273 273 273 273 274 275 276 277 277 277 279 280 281 282 282 283 283 284 284 284 285 286 288 288 288 287 287 286 286 285 285 285 286 287 288 288 289 289 290 292 293 295 296 298 300 301 302 303 304 305 306 307 309 311
251 252 253 253 253 253 252 251 251 253 255 256 255 255 256 256 256 257 258 260 263 265 268 269 271 271 272 272 272 272 273 274 275 275 275 275 276 276 277 279 279 278 279 279 280 281 282 283 283 283 283 284 284 285 286 287 287 286 286 286 286 287 287 287 287 287 288 288 289 290 291 292 293 294 296 297 298 300 301 302 303 304 305 306 307 309 310
249 250 251 252 253 253 253 251 250 250 252 254 255 255 256 257 257 259 261 263 265 267 268 270 271 272 273 273 273 274 275 275 276 276 277 277 277 278 278 279 280 280 280 280 281 281 282 283 283 284 283 283 282 283 284 284 284 284 285 285 286 287 287 288 289 289 290 290 290 291 292 293 294 295 295 297 298 299 301 302 303 304 305 306 307 308 310
252 251 251 252 253 253 252 250 248 248 249 251 253 254 256 257 259 262 264 266 267 269 269 271 272 272 273 273 275 276 277 277 277 277 277 277 277 278 279 279 280 281 281 282 282 282 282 283 284 285 285 285 285 284 284 284 284 284 284 285 285 286 287 288 289 289 290 291 291 292 293 293 294 295 296 297 298 299 300 302 302 303 304 305 306 307 308
255 254 253 253 253 253 253 251 250 248 249 251 253 256 257 258 260 263 265 266 267 268 269 270 270 271 272 273 275 276 277 278 278 278 279 279 279 279 280 280 281 281 282 283 283 283 283 283 283 284 285 286 286 286 286 285 285 285 285 285 285 285 286 287 288 289 290 291 291 292 293 294 294 295 296 297 297 298 299 300 301 301 302 303 304 305 306
257 257 256 256 255 255 254 254 253 252 251 253 255 257 259 260 262 262 263 264 265 266 267 268 268 270 271 272 274 274 275 276 277 278 278 279 280 280 280 280 281 282 283 284 284 284 284 283 283 283 284 284 285 286 286 287 286 286 286 286 286 287 287 288 289 289 290 290 291 292 293 294 295 296 296 297 297 298 299 299 299 300 300 301 302 304 306
254 255 256 257 257 257 256 256 255 255 255 255 257 259 261 263 263 262 261 261 262 263 264 266 267 269 270 271 272 273 274 275 275 276 278 279 279 279 279 279 280 282 283 284 285 285 285 284 284 284 283 283 284 285 285 286 287 287 287 288 288 289 289 290 290 290 291 291 292 293 293 294 295 296 297 297 298 298 299 299 299 300 300 302 303 304 306